Location: Sommers-Bausch Observatory
(40.0037°N, 105.2635°W)
Time: 05:21:10
(UTC-06:00)

Amateur Radio Satellites - All Passes

Search period start: 20 October 2014 04:51
Search period end: 21 October 2014 04:51
Location: Sommers-Bausch Observatory, 40.0037°N, 105.2635°W

Satellite Date Start Highest point End Downlink Frequencies (MHz)
Time Altitude Azimuth
Uosat F 20 Oct 04:58:33 05:03:15 37° 98° (E) 05:07:54 435.120 FM
AO-Echo 20 Oct 04:59:58 05:01:16 11° 301° (WNW) 05:02:33 ?
RS-15 20 Oct 05:22:31 05:30:27 22° 19° (NNE) 05:38:32 29.354 - 29.394 USB, Beacon 29.352 USB
OPAL 20 Oct 05:25:49 05:31:00 75° 255° (WSW) 05:36:09 ?
STRAND 1 20 Oct 05:27:14 05:28:37 11° 58° (ENE) 05:30:00 ?
Sapphire 20 Oct 05:54:51 06:00:08 56° 302° (WNW) 06:05:29 437.095 MHz 1200 baud AX-25 AFSK
JAS-2 20 Oct 06:01:36 06:08:57 47° 98° (E) 06:16:25 435.800 - 435.900 CW/SSB, 435.910 FM
PCSat 20 Oct 06:18:35 06:23:29 34° 307° (NW) 06:28:26 145.825 MHz
Hamsat 20 Oct 06:23:57 06:27:51 37° 98° (E) 06:31:45 145.90 MHz
AO-7 20 Oct 06:27:27 06:35:21 51° 296° (WNW) 06:43:16 29.400 - 29.500 MHz
Uosat F 20 Oct 06:37:44 06:41:49 25° 294° (WNW) 06:45:53 435.120 FM
STRAND 1 20 Oct 07:01:52 07:06:59 87° 75° (ENE) 07:12:10 ?
RS-15 20 Oct 07:35:18 07:46:10 54° 49° (NE) 07:57:26 29.354 - 29.394 USB, Beacon 29.352 USB
Sapphire 20 Oct 07:43:45 07:44:48 11° 323° (NW) 07:45:51 437.095 MHz 1200 baud AX-25 AFSK
JAS-2 20 Oct 07:46:51 07:53:44 39° 294° (WNW) 08:00:49 435.800 - 435.900 CW/SSB, 435.910 FM
Hamsat 20 Oct 08:00:43 08:03:31 18° 293° (WNW) 08:06:19 145.90 MHz
SO-67 20 Oct 08:04:38 08:08:05 76° 101° (E) 08:11:31 435.3500 MHz FM
AO-7 20 Oct 08:24:21 08:26:10 11° 317° (NW) 08:27:59 29.400 - 29.500 MHz
HO-68 20 Oct 08:56:35 09:02:09 24° 93° (E) 09:07:40 435.675 MHz FM
Saudisat 1A 20 Oct 09:06:48 09:11:10 77° 120° (ESE) 09:15:35 436.775 MHz
RS-15 20 Oct 09:47:58 09:58:22 46° 250° (WSW) 10:09:14 29.354 - 29.394 USB, Beacon 29.352 USB
Oscar 11 20 Oct 09:57:05 10:00:23 21° 94° (E) 10:03:39 145.825 FM, Beacon 2401.500 USB
MaSat-1 20 Oct 10:05:49 10:07:49 18° 56° (NE) 10:09:41 437.345 MHz
ZACube-1 20 Oct 10:32:04 10:35:21 21° 94° (E) 10:38:34 437.345 MHz
HO-68 20 Oct 10:43:12 10:50:17 63° 290° (WNW) 10:57:21 435.675 MHz FM
UKube-1 20 Oct 10:46:09 10:50:33 84° 103° (ESE) 10:54:55 145.840 MHz, 145.915 MHz
Saudisat 1A 20 Oct 10:48:46 10:51:16 15° 319° (NW) 10:53:47 436.775 MHz
PANSAT 20 Oct 11:07:25 11:09:29 14° 175° (S) 11:11:32 not established
FUNcube-1 20 Oct 11:17:18 11:21:36 70° 101° (ESE) 11:25:47 145.950 - 145.970 MHz USB
Oscar 11 20 Oct 11:32:46 11:36:35 32° 290° (WNW) 11:40:23 145.825 FM, Beacon 2401.500 USB
KITSAT 1 20 Oct 11:33:34 11:36:39 13° 98° (E) 11:39:44 435.175 FM
MaSat-1 20 Oct 11:42:33 11:43:19 11° 256° (WSW) 11:44:03 437.345 MHz
ZACube-1 20 Oct 12:08:00 12:11:48 31° 290° (WNW) 12:15:30 437.345 MHz
Oscar 16 20 Oct 12:19:55 12:22:37 15° 61° (ENE) 12:25:20 437.025 USB, Beacon 2401.1428
HO-68 20 Oct 12:34:04 12:36:36 12° 310° (NW) 12:39:07 435.675 MHz FM
PANSAT 20 Oct 12:47:07 12:48:55 13° 188° (S) 12:50:43 not established
JAS-1B 20 Oct 12:48:08 12:52:45 23° 64° (ENE) 12:57:09 435.800 - 435.900 CW/SSB
AO-Echo 20 Oct 12:54:39 12:57:09 14° 61° (ENE) 12:59:40 ?
FUNcube-1 20 Oct 12:56:29 12:57:21 11° 298° (WNW) 12:58:12 145.950 - 145.970 MHz USB
Sapphire 20 Oct 13:01:11 13:04:43 17° 44° (NE) 13:08:14 437.095 MHz 1200 baud AX-25 AFSK
Oscar 19 20 Oct 13:11:40 13:16:30 42° 70° (ENE) 13:21:19 437.125 CW, 437.150 USB
AO-27 20 Oct 13:18:15 13:22:04 21° 64° (ENE) 13:25:55 436.795 MHz FM
KITSAT 1 20 Oct 13:22:37 13:30:38 74° 116° (ESE) 13:38:42 435.175 FM
PCSat 20 Oct 13:23:43 13:28:14 26° 49° (NE) 13:32:44 145.825 MHz
SO-50 20 Oct 13:40:05 13:43:53 28° 113° (ESE) 13:47:48 436.795 FM
Oscar 16 20 Oct 13:56:11 14:01:20 73° 258° (WSW) 14:06:31 437.025 USB, Beacon 2401.1428
Gurwin Techsat 1B 20 Oct 14:03:48 14:08:16 28° 67° (ENE) 14:12:45 435.225 FM
Uribyol 2 20 Oct 14:06:56 14:12:03 62° 73° (ENE) 14:17:13 436.500 FM
ITAMSAT 1 20 Oct 14:11:41 14:16:49 64° 73° (ENE) 14:22:00 435.822 SSB
Oscar 10/S400 20 Oct 14:15:44 14:33:40 41° 154° (SSE) 14:57:01 145.825 - 145.975 CW/USB, Beacon 145.810 USB
TMSAT-1 20 Oct 14:18:15 14:22:42 28° 67° (ENE) 14:27:11 436.925 FM
ISS 20 Oct 14:22:28 14:25:38 43° 137° (SE) 14:28:50 145.800 FM
AO-Echo 20 Oct 14:30:30 14:35:16 68° 258° (WSW) 14:40:14 ?
JAS-1B 20 Oct 14:37:13 14:43:13 46° 260° (W) 14:48:43 435.800 - 435.900 CW/SSB
Sapphire 20 Oct 14:43:21 14:48:49 82° 243° (WSW) 14:54:14 437.095 MHz 1200 baud AX-25 AFSK
Oscar 19 20 Oct 14:51:58 14:55:58 23° 266° (W) 14:59:59 437.125 CW, 437.150 USB
AO-27 20 Oct 14:56:13 15:01:13 48° 260° (W) 15:06:17 436.795 MHz FM
PCSat 20 Oct 15:06:41 15:11:52 47° 248° (WSW) 15:17:01 145.825 MHz
KITSAT 1 20 Oct 15:19:57 15:26:46 29° 317° (NW) 15:33:38 435.175 FM
SO-50 20 Oct 15:20:17 15:24:20 32° 311° (NW) 15:28:31 436.795 FM
UOSAT-12 20 Oct 15:29:37 15:33:45 33° 114° (ESE) 15:37:58 437.025 FM, 437.400 FM
AO-7 20 Oct 15:33:07 15:40:53 47° 63° (ENE) 15:48:40 29.400 - 29.500 MHz
Gurwin Techsat 1B 20 Oct 15:43:15 15:48:05 36° 263° (W) 15:52:57 435.225 FM
Uribyol 2 20 Oct 15:48:54 15:51:56 16° 269° (W) 15:54:59 436.500 FM
ITAMSAT 1 20 Oct 15:53:53 15:56:44 15° 269° (W) 15:59:37 435.822 SSB
TMSAT-1 20 Oct 15:57:39 16:02:28 36° 263° (W) 16:07:20 436.925 FM
ISS 20 Oct 15:59:35 16:02:27 26° 334° (NNW) 16:05:20 145.800 FM
Uosat F 20 Oct 16:11:06 16:15:54 49° 71° (ENE) 16:20:45 435.120 FM
JAS-2 20 Oct 16:16:02 16:19:31 16° 56° (NE) 16:23:14 435.800 - 435.900 CW/SSB, 435.910 FM
UOSAT-12 20 Oct 17:09:49 17:13:53 30° 312° (NW) 17:18:03 437.025 FM, 437.400 FM
Hamsat 20 Oct 17:16:56 17:20:25 25° 69° (ENE) 17:23:53 145.90 MHz
KITSAT 1 20 Oct 17:24:03 17:25:30 11° 346° (NNW) 17:26:57 435.175 FM
AO-7 20 Oct 17:26:10 17:33:43 39° 261° (W) 17:41:20 29.400 - 29.500 MHz
Saudisat 1A 20 Oct 17:34:07 17:38:26 49° 54° (NE) 17:42:43 436.775 MHz
OPAL 20 Oct 17:36:56 17:41:15 29° 98° (E) 17:45:31 ?
ISS 20 Oct 17:38:44 17:40:03 12° 354° (N) 17:41:23 145.800 FM
Uosat F 20 Oct 17:51:30 17:54:56 19° 267° (W) 17:58:24 435.120 FM
JAS-2 20 Oct 17:57:56 18:03:35 80° 257° (WSW) 18:10:03 435.800 - 435.900 CW/SSB, 435.910 FM
SO-67 20 Oct 18:37:10 18:39:49 21° 70° (ENE) 18:42:29 435.3500 MHz FM
Hamsat 20 Oct 18:52:45 18:56:16 25° 265° (W) 18:59:48 145.90 MHz
STRAND 1 20 Oct 19:13:34 19:18:08 31° 96° (E) 19:22:39 ?
Saudisat 1A 20 Oct 19:14:47 19:17:36 17° 250° (WSW) 19:20:25 436.775 MHz
OPAL 20 Oct 19:15:44 19:20:05 31° 294° (WNW) 19:24:24 ?
ISS 20 Oct 19:15:52 19:17:53 15° 15° (NNE) 19:19:53 145.800 FM
KITSAT 1 20 Oct 19:23:08 19:25:37 12° 18° (NNE) 19:28:07 435.175 FM
HO-68 20 Oct 19:26:09 19:30:40 18° 55° (NE) 19:35:11 435.675 MHz FM
AO-40 20 Oct 19:31:36 22:40:59 37° 195° (SSW) 03:59:02 Beacon 2401.320
SO-67 20 Oct 20:10:11 20:12:43 19° 266° (W) 20:15:17 435.3500 MHz FM
ISS 20 Oct 20:51:53 20:55:10 53° 34° (NNE) 20:58:27 145.800 FM
Oscar 11 20 Oct 20:52:14 20:54:59 17° 65° (ENE) 20:57:43 145.825 FM, Beacon 2401.500 USB
STRAND 1 20 Oct 20:52:45 20:57:15 31° 293° (WNW) 21:01:42 ?
HO-68 20 Oct 21:10:15 21:17:25 89° 254° (WSW) 21:24:39 435.675 MHz FM
KITSAT 1 20 Oct 21:16:51 21:24:03 34° 46° (NE) 21:31:11 435.175 FM
ZACube-1 20 Oct 21:28:08 21:31:18 19° 66° (ENE) 21:34:28 437.345 MHz
UKube-1 20 Oct 21:40:43 21:45:01 66° 74° (ENE) 21:49:22 145.840 MHz, 145.915 MHz
RS-15 20 Oct 21:59:44 22:09:00 33° 105° (ESE) 22:18:08 29.354 - 29.394 USB, Beacon 29.352 USB
SO-50 20 Oct 22:11:46 22:15:50 26° 47° (NE) 22:19:55 436.795 FM
FUNcube-1 20 Oct 22:12:26 22:16:55 53° 73° (ENE) 22:21:22 145.950 - 145.970 MHz USB
Oscar 11 20 Oct 22:26:40 22:30:48 43° 261° (W) 22:34:57 145.825 FM, Beacon 2401.500 USB
ISS 20 Oct 22:29:24 22:31:34 16° 230° (SW) 22:33:44 145.800 FM
HO-68 20 Oct 23:02:16 23:05:59 15° 271° (W) 23:09:44 435.675 MHz FM
ZACube-1 20 Oct 23:02:58 23:07:22 44° 261° (W) 23:11:45 437.345 MHz
KITSAT 1 20 Oct 23:11:59 23:19:54 62° 246° (WSW) 23:27:47 435.175 FM
UKube-1 20 Oct 23:20:56 23:21:38 10° 270° (W) 23:22:20 145.840 MHz, 145.915 MHz
MaSat-1 20 Oct 23:44:47 23:46:03 11° 104° (ESE) 23:47:17 437.345 MHz
FUNcube-1 20 Oct 23:51:00 23:53:34 15° 269° (W) 23:56:07 145.950 - 145.970 MHz USB
SO-50 20 Oct 23:51:58 23:56:33 42° 244° (WSW) 00:01:09 436.795 FM
UOSAT-12 20 Oct 23:59:42 00:03:44 27° 47° (NE) 00:07:43 437.025 FM, 437.400 FM
RS-15 21 Oct 00:09:33 00:20:29 68° 306° (NW) 00:31:25 29.354 - 29.394 USB, Beacon 29.352 USB
MaSat-1 21 Oct 01:17:11 01:21:27 62° 296° (WNW) 01:25:21 437.345 MHz
Oscar 19 21 Oct 01:25:15 01:28:10 15° 91° (E) 01:31:04 437.125 CW, 437.150 USB
UOSAT-12 21 Oct 01:39:38 01:43:58 38° 245° (WSW) 01:48:14 437.025 FM, 437.400 FM
Oscar 16 21 Oct 02:08:45 02:13:36 42° 99° (E) 02:18:25 437.025 USB, Beacon 2401.1428
JAS-1B 21 Oct 02:19:40 02:25:56 47° 100° (E) 02:33:19 435.800 - 435.900 CW/SSB
Uribyol 2 21 Oct 02:21:07 02:25:13 23° 94° (E) 02:29:16 436.500 FM
Gurwin Techsat 1B 21 Oct 02:22:56 02:24:16 11° 89° (E) 02:25:35 435.225 FM
ITAMSAT 1 21 Oct 02:25:56 02:30:08 24° 95° (E) 02:34:18 435.822 SSB
RS-15 21 Oct 02:26:58 02:35:23 24° 335° (NNW) 02:43:55 29.354 - 29.394 USB, Beacon 29.352 USB
TMSAT-1 21 Oct 02:37:02 02:38:19 11° 88° (E) 02:39:37 436.925 FM
AO-Echo 21 Oct 02:38:09 02:43:12 43° 98° (E) 02:48:13 ?
Oscar 19 21 Oct 03:02:51 03:07:54 61° 287° (WNW) 03:12:55 437.125 CW, 437.150 USB
AO-27 21 Oct 03:09:41 03:14:54 65° 102° (ESE) 03:20:05 436.795 MHz FM
AO-7 21 Oct 03:38:05 03:41:40 13° 88° (E) 03:45:13 29.400 - 29.500 MHz
Sapphire 21 Oct 03:44:19 03:46:56 14° 103° (ESE) 03:49:34 437.095 MHz 1200 baud AX-25 AFSK
Oscar 16 21 Oct 03:48:42 03:52:40 23° 295° (WNW) 03:56:38 437.025 USB, Beacon 2401.1428
Gurwin Techsat 1B 21 Oct 03:59:31 04:04:52 85° 285° (WNW) 04:10:10 435.225 FM
Uribyol 2 21 Oct 03:59:56 04:04:49 42° 290° (WNW) 04:09:40 436.500 FM
ITAMSAT 1 21 Oct 04:04:52 04:09:44 40° 291° (WNW) 04:14:34 435.822 SSB
PCSat 21 Oct 04:05:25 04:09:42 24° 107° (ESE) 04:13:59 145.825 MHz
JAS-1B 21 Oct 04:10:55 04:16:25 31° 293° (WNW) 04:22:43 435.800 - 435.900 CW/SSB
TMSAT-1 21 Oct 04:13:32 04:18:53 85° 284° (WNW) 04:24:11 436.925 FM
AO-Echo 21 Oct 04:17:28 04:21:40 25° 294° (WNW) 04:25:53 ?
Uosat F 21 Oct 04:20:47 04:23:48 16° 92° (E) 04:26:47 435.120 FM
